{"data":{"norad_id":60047,"epoch":"2026-05-24T18:36:57.665088Z","epoch_age_seconds":101220,"freshness":"FRESH","line1":"1 60047U 24112K   26144.77566742  .00004209  00000+0  39548-4 0  9995","line2":"2 60047  53.1593 251.0084 0000963 101.4476 258.6651 15.69730244112936","mean_motion":15.69730244,"eccentricity":9.63e-5,"inclination_deg":53.1593,"raan_deg":251.0084,"arg_perigee_deg":101.4476,"mean_anomaly_deg":258.6651,"bstar":3.9548e-5,"rev_number":11293,"period_min":91.735507135964,"perigee_km":359.01996976285,"apogee_km":360.31767116387,"semimajor_km":6737.8058204634,"source":"CELESTRAK","updated_at":"2026-05-25T13:38:19.153825Z"}}